Location: Unspecified
(41.9031°N, 12.4386°E)
Time: 16:10:00
(UTC+01:00)

ISS - Visible Passes

Search period start: 20 March 2019 00:00
Search period end: 30 March 2019 00:00
Orbit: 406 x 411 km, 51.6° (Epoch: 21 March)

Date Brightness Start Highest point End Pass type
(mag) Time Alt. Az. Time Alt. Az. Time Alt. Az.
20 Mar -2.4 19:41:59 10° SSW 19:43:57 23° SSE 19:43:57 23° SSE visible
21 Mar -1.9 18:52:05 10° SSE 18:53:57 14° SE 18:55:49 10° E visible
21 Mar -2.3 20:26:52 10° WSW 20:28:53 34° WSW 20:28:53 34° WSW visible
22 Mar -3.9 19:35:51 10° SW 19:39:07 66° SE 19:40:46 26° ENE visible
22 Mar -0.4 21:13:11 10° WNW 21:13:33 12° WNW 21:13:33 12° WNW visible
23 Mar -2.3 20:21:43 10° W 20:24:44 33° NNW 20:25:12 31° N visible
24 Mar -3.0 19:30:21 10° WSW 19:33:35 52° NNW 19:36:40 11° NE visible
24 Mar -0.6 21:08:24 10° NW 21:09:25 14° NW 21:09:25 14° NW visible
25 Mar -1.5 20:16:48 10° WNW 20:19:25 21° NNW 20:20:44 17° NNE visible
26 Mar -1.9 19:25:15 10° W 19:28:09 28° NNW 19:31:03 10° NE visible
26 Mar -0.8 21:03:29 10° NW 21:04:39 14° NNW 21:04:39 14° NNW visible
27 Mar -1.2 20:11:58 10° NW 20:14:09 16° N 20:15:43 13° NNE visible
28 Mar -1.4 19:20:21 10° WNW 19:22:48 19° NNW 19:25:15 10° NE visible
28 Mar -0.9 20:58:10 10° NNW 20:59:28 15° NNW 20:59:28 15° NNW visible
29 Mar -1.3 20:06:52 10° NW 20:08:53 15° N 20:10:24 12° NNE visible
